Hovedside
METAR-TAF:

METAR-TAF

Lufthavner :

Madrid, Spania

Madrid-Barajas lufthavn

breddegrad: 40-27N, lengdegrad: 003-33W, høyde over havet: 609 m

Gjeldene værobservasjon

Denne rapporten ble laget for 39 minutter siden, klokken 21:00 UTC
Vind 3 kt fra Nord-nordvest
Temperatur 5°C
Luftfuktighet 75%
Trykk 1021 hPa
Sikt 10 km eller mer
ingen skyer under 1500 m og ingen bygeskyer

METAR: LEMD 182100Z 34003KT CAVOK 05/01 Q1021 NOSIG

Tid: 22:39 (21:39 UTC)

Varsel

Denne rapporten ble laget for 4 timer og 39 minutter siden, klokken 17:00 UTC
Varsel gyldig fra 18. klokken 18 UTC til 19. klokken 24 UTC
Vind 5 kt fra skiftende retning
Sikt 10 km eller mer
ingen skyer under 1500 m og ingen bygeskyer
Midlertidig
fra 18. klokken 20 UTC til 19. klokken 09 UTC
Vind 6 kt fra Nord

TAF: LEMD 181700Z 1818/1924 VRB05KT CAVOK TX16/1915Z TN00/1906Z TEMPO 1820/1909 01006KT

Værobservasjoner og værvarsel for over 4000 flyplasser (METAR- og TAF-rapporter).

Tilgjengelige stasjoner er representert av de røde og gule prikkene på kartet.

Hold musepekeren over prikken for å se navnet på stasjonen.

Klikk så for å se værobservasjoner og -varsler.

For å forandre kartet kan du klikke på den grønne knappen med svart kryss for å zoome inn, på den grønne knappen med strek for å zoome ut, eller på de grønne pilene for å se tilstøtende kart.


METAR-TAF: